Regional Weather Roundup
Issued by NWS Boston, MA

Home | Current Version | Previous Version | Text Only | Print | Product List | Glossary On
Versions: 1 2 3 4 5 6 7 8 9 10 11 12 13 14 15 16 17 18 19 20 21 22 23 24 25 26 27 28 29 30 31 32 33 34 35 36 37 38 39 40 41 42 43 44 45 46 47 48 49 50
000
ASUS41 KBOX 060510
RWRBOX

REGIONAL WEATHER ROUNDUP
NATIONAL WEATHER SERVICE TAUNTON MA
100 AM EDT MON JUL 06 2015

NOTE:  "FAIR" INDICATES FEW OR NO CLOUDS BELOW 12,000 FEET WITH NO
SIGNIFICANT WEATHER AND/OR OBSTRUCTIONS TO VISIBILITY.  THE FOLLOWING
OBSERVATION LOCATIONS DO NOT REPORT PRESENT WEATHER...PROVINCETOWN...
SMITHFIELD...BLOCK ISLAND...KEENE...AND OXFORD.

MAZALL-060600-
EASTERN MASSACHUSETTS

CITY           SKY/WX    TMP DP  RH WIND       PRES   REMARKS
BOSTON         CLEAR     72  62  71 SW8       30.13S
BEVERLY        CLEAR     66  61  84 SW3       30.12S
LAWRENCE       CLEAR     66  61  84 CALM      30.14F
BEDFORD        CLEAR     64  60  87 CALM      30.12S
BLUE HILL        N/A     67  63  87 W10       30.14S
NORWOOD        CLEAR     65  61  87 CALM      30.13S
MARSHFIELD     CLEAR     70  64  83 W3        30.14S
PLYMOUTH       CLEAR     64  62  93 CALM      30.14S
TAUNTON        CLEAR     63  60  90 CALM      30.14R
NEW BEDFORD    CLEAR     64  62  93 CALM      30.14R
$$

MAZALL-060600-
CAPE COD AND THE ISLANDS

CITY           SKY/WX    TMP DP  RH WIND       PRES   REMARKS
FALMOUTH       CLEAR     66  64  94 SW5       30.15S
HYANNIS        CLEAR     66  63  90 SW7       30.13S
CHATHAM        CLEAR     67  64  90 VRB3      30.14S
PROVINCETOWN   CLEAR     63   7  11 SW7       30.13S
NANTUCKET      CLEAR     66  62  87 W10       30.15S
MARTHAS VNYRD  CLEAR     67  63  87 W6        30.15S
$$

MAZALL-060600-
CENTRAL AND WESTERN MASSACHUSETTS

CITY           SKY/WX    TMP DP  RH WIND       PRES   REMARKS
WORCESTER      CLEAR     64  58  80 SW8       30.17S
FITCHBURG      CLEAR     64  58  80 NW5       30.15S
ORANGE         CLEAR     59  57  93 CALM      30.16S
SPRINGFIELD    CLEAR     60  58  94 N1        30.14R
WESTFIELD      CLEAR     62  59  90 CALM      30.15R
NORTH ADAMS    CLOUDY    60  57  89 CALM      30.17S
PITTSFIELD     MOCLDY    63  60  90 S3        30.17S
$$

RIZALL-060600-
RHODE ISLAND

CITY           SKY/WX    TMP DP  RH WIND       PRES   REMARKS
PROVIDENCE     CLEAR     68  63  84 W10         N/A
NEWPORT        CLEAR     66  63  90 CALM      30.15S
BLOCK ISLAND   CLEAR     66  61  82 W9        30.16S
SMITHFIELD     CLEAR     61  55  82 SW3       30.15S
WESTERLY       CLEAR     67  64  90 CALM      30.16S
$$

CTZALL-060600-
CONNECTICUT

CITY           SKY/WX    TMP DP  RH WIND       PRES   REMARKS
BRADLEY INTL   PTCLDY    65  60  84 CALM      30.14S
HARTFORD       CLEAR     68  64  87 S3        30.14S
BRIDGEPORT     PTCLDY    69  64  84 CALM      30.15S
DANBURY        CLEAR     63  59  87 SW3       30.18R
GROTON         CLEAR     67  63  87 W3        30.15S
NEW HAVEN      PTCLDY    70  65  84 CALM      30.15S
CHESTER        NOT AVBL
MERIDEN        CLEAR     65  62  90 CALM      30.15S FOG
WILLIMANTIC    CLEAR     65  62  90 NE5       30.16S
OXFORD         MOCLDY    64  59  82 CALM      30.18F
$$

MEZ002-015-021-024-NHZ003-005-008-011-012-014-VTZ005-008-060600-
NORTHERN NEW ENGLAND

CITY           SKY/WX    TMP DP  RH WIND       PRES   REMARKS
PORTLAND ME    CLEAR     66  59  78 W3        30.12R
BANGOR ME      CLEAR     64  57  78 W6        30.10R
CONCORD NH     PTCLDY    63  60  90 E3        30.14S
MANCHESTER NH  MOCLDY    68  61  78 CALM      30.12S
NASHUA NH      CLEAR     64  62  93 CALM      30.14S
PORTSMOUTH NH  CLEAR     65  62  89 W5        30.11S
JAFFREY NH     CLEAR     60  58  92 CALM      30.17F
KEENE NH       CLEAR     61  55  82 CALM      30.16S
BURLINGTON VT  CLEAR     63  59  87 NE3       30.12F
MT. WASHINGTON FOG       46  46 100 NW31        N/A  VSB 1/8
$$

NYZ052-076-060600-
EASTERN NEW YORK

CITY           SKY/WX    TMP DP  RH WIND       PRES   REMARKS
ALBANY         PTCLDY    66  58  75 E3        30.14S
NEW YORK CITY  PTCLDY    74  65  73 S3        30.14S
$$

ANZALL-060600-
MARINE OBSERVATIONS

STATION/POSITION TIME  TEMP    WIND        PRES    VSBY  WAVE
                       AIR SEA DIR/SP/G                  HT/PER
                 (UTC) (F)     (DEG/KT/KT) (MB)    (MI)  (FT/S)
BOSTON BUOY      0450   67 63  260/  8/ 10 1020.0F         1/ 6
BUZZARDS BAY     0400          240/ 15/ 16 1021.6R
NANTUCKET SOUND  0450   69 68  260/ 12/ 14 1020.5R         1/ 3
MASS BAY-STELLWA 0404   67 64  240/  6/  6 1019.0R  1 7/8  2/ 6
ISLE OF SHOALS   0500   71     300/  9/  9 1019.2R
S OF BLOCK IS    0408      64                N/A           4/ 8
$$

......................KEY.........................
  SKY/WX - SKY CONDITION/PRESENT WEATHER
  TMP    - TEMPERATURE IN FAHRENHEIT
  DWPT   - DEWPOINT IN FAHRENHEIT
  RH     - RELATIVE HUMIDITY IN PERCENT
  WIND   - DIRECTION AND SPEED IN MPH
  PRES   - MEAN SEA LEVEL PRESSURE IN INCHES OF HG
  WCI    - WIND CHILL INDEX
  VSB    - VISIBILITY IN MILES
  HX     - HEAT INDEX
  TC     - TEMPERATURE IN CELSIUS
  VRB    - VARIABLE WIND DIRECTION
  N/A    - NOT AVAILABLE



USA.gov is the U.S. government's official web portal to all federal, state and local government web resources and services.